Weather History for Philadelphia Wings Airport, PA

Change the Weather History Date:

Saturday, October 29, 2011

  Actual Average (KPNE) Record (KPNE)
Temperature  
Mean Temperature 38 °F -  
Max Temperature 44 °F 59 °F 69 °F (1999)
Min Temperature 33 °F 40 °F 32 °F (1997)
Degree Days  
Heating Degree Days 26    
Moisture  
Dew Point 34 °F    
Average Humidity 88    
Maximum Humidity 100    
Minimum Humidity 61    
Precipitation  
Precipitation 0.72 in - - ()
Sea Level Pressure  
Sea Level Pressure 30.02 in    
Wind  
Wind Speed - (North)    
Max Wind Speed -    
Max Gust Speed -    
Visibility 5 miles    
Events      
Averages and records for this station are not official NWS values.
T = Trace of Precipitation, MM = Missing Value Source: NWS Daily Summary

Daily Weather History Graph

Daily Weather History Graph

Search for Another Location

Airport:

Trip Planner

Search our weather history database for the weather conditions in past years. The results will help you decide how hot, cold, wet, or windy it might be!

Date:

Astronomy

Oct. 29, 2011 Rise Set
Actual Time 7:26 AM EDT 6:02 PM EDT
Civil Twilight 6:58 AM EDT 6:30 PM EDT
Nautical Twilight 6:26 AM EDT 7:02 PM EDT
Astronomical Twilight 5:55 AM EDT 7:33 PM EDT
Moon 10:46 AM EDT (10/29) 8:23 PM EDT (10/29)
Length of Visible Light 11h 31m
Length of Day
10h 35m
Waxing Crescent, 11% of the Moon is Illuminated
Oct 29
Waxing Crescent
Nov 2
First Quarter
Nov 10
Full
Nov 18
Last Quarter
Nov 25
New

Hourly Weather History & Observations

Time (EDT) Temp. Dew Point Humidity Pressure Visibility Wind Dir Wind Speed Gust Speed Precip Events Conditions
12:15 AM 42.8 °F 37.4 °F 81% 30.21 in 10.0 mi North - - N/A   Clear
12:35 AM 42.8 °F 37.4 °F 81% 30.21 in 10.0 mi North - - N/A   Scattered Clouds
12:55 AM 44.6 °F 32.0 °F 61% 30.20 in 10.0 mi North - - N/A   Scattered Clouds
1:15 AM 44.6 °F 32.0 °F 61% 30.19 in 10.0 mi North - - N/A   Clear
1:35 AM 44.6 °F 32.0 °F 61% 30.18 in 10.0 mi North - - N/A   Clear
1:55 AM 44.6 °F 32.0 °F 61% 30.18 in 10.0 mi North - - N/A   Clear
2:15 AM 44.6 °F 32.0 °F 61% 30.17 in 10.0 mi North - - N/A   Clear
2:55 AM 44.6 °F 32.0 °F 61% 30.17 in 10.0 mi North - - N/A   Clear
3:15 AM 44.6 °F 33.8 °F 66% 30.17 in 10.0 mi North - - N/A   Scattered Clouds
3:35 AM 44.6 °F 35.6 °F 71% 30.17 in 10.0 mi North - - N/A   Clear
3:55 AM 44.6 °F 33.8 °F 66% 30.16 in 10.0 mi North - - N/A   Scattered Clouds
4:15 AM 42.8 °F 35.6 °F 76% 30.16 in 10.0 mi North - - N/A   Mostly Cloudy
4:35 AM 42.8 °F 35.6 °F 76% 30.15 in 10.0 mi North - - N/A   Overcast
4:55 AM 42.8 °F 37.4 °F 81% 30.14 in 10.0 mi North - - N/A   Overcast
5:15 AM 42.8 °F 37.4 °F 81% 30.13 in 10.0 mi North - - N/A   Scattered Clouds
5:35 AM 42.8 °F 35.6 °F 76% 30.13 in 10.0 mi North - - N/A   Clear
6:15 AM 42.8 °F 33.8 °F 70% 30.10 in 10.0 mi North - - N/A   Mostly Cloudy
6:55 AM 41.0 °F 35.6 °F 81% 30.11 in 10.0 mi North - - N/A   Overcast
7:15 AM 41.0 °F 35.6 °F 81% 30.10 in 7.0 mi North - - 0.01 in   Overcast
7:35 AM 39.2 °F 35.6 °F 87% 30.09 in 7.0 mi North - - 0.02 in   Overcast
7:55 AM 39.2 °F 35.6 °F 87% 30.09 in 7.0 mi North - - 0.03 in   Overcast
8:15 AM 37.4 °F 35.6 °F 93% 30.08 in 5.0 mi North - - 0.02 in   Overcast
8:35 AM 37.4 °F 35.6 °F 93% 30.07 in 7.0 mi North - - 0.03 in   Overcast
8:55 AM 37.4 °F 35.6 °F 93% 30.06 in 5.0 mi North - - 0.05 in   Overcast
9:15 AM 35.6 °F 35.6 °F 100% 30.05 in 7.0 mi North - - 0.01 in   Overcast
9:55 AM 35.6 °F 33.8 °F 93% 30.01 in 7.0 mi North - - 0.03 in   Overcast
10:15 AM 35.6 °F 33.8 °F 93% 30.02 in 2.5 mi North - - 0.03 in   Overcast
10:35 AM 33.8 °F 33.8 °F 100% 30.01 in 1.2 mi North - - 0.04 in   Overcast
11:15 AM 33.8 °F 33.8 °F 100% 30.01 in 0.8 mi North - - 0.01 in   Overcast
11:35 AM 33.8 °F 33.8 °F 100% 29.99 in 1.2 mi North - - 0.03 in   Overcast
11:55 AM 33.8 °F 33.8 °F 100% 29.96 in 0.8 mi North - - 0.05 in   Overcast
12:15 PM 33.8 °F 33.8 °F 100% 29.95 in 1.0 mi North - - 0.04 in   Overcast
12:35 PM 33.8 °F 33.8 °F 100% 29.96 in 1.5 mi North - - 0.11 in   Overcast
12:55 PM 33.8 °F 33.8 °F 100% 29.93 in 2.5 mi North - - 0.17 in   Overcast
1:15 PM 33.8 °F 33.8 °F 100% 29.90 in 0.5 mi North - - 0.02 in   Overcast
1:55 PM 33.8 °F 33.8 °F 100% 29.86 in 0.8 mi North - - 0.13 in   Overcast
2:15 PM 33.8 °F 33.8 °F 100% 29.85 in 1.5 mi North - - 0.01 in   Overcast
2:35 PM 33.8 °F 33.8 °F 100% 29.86 in 3.0 mi North - - 0.02 in   Overcast
2:55 PM 33.8 °F 33.8 °F 100% 29.85 in 2.0 mi North - - 0.03 in   Overcast
3:15 PM 35.6 °F 33.8 °F 93% 29.84 in 2.0 mi North - - 0.01 in   Overcast
3:35 PM 35.6 °F 33.8 °F 93% 29.86 in 3.0 mi North - - 0.01 in   Overcast
3:55 PM 35.6 °F 33.8 °F 93% 29.88 in 1.2 mi North - - 0.05 in   Overcast
4:15 PM 33.8 °F 33.8 °F 100% 29.89 in 1.2 mi North - - 0.02 in   Overcast
4:35 PM 33.8 °F 33.8 °F 100% 29.89 in 1.0 mi North - - 0.04 in   Overcast
4:55 PM 33.8 °F 33.8 °F 100% 29.89 in 1.0 mi North - - 0.05 in   Overcast
5:15 PM 33.8 °F 33.8 °F 100% 29.89 in 1.0 mi North - - 0.02 in   Overcast
5:35 PM 33.8 °F 33.8 °F 100% 29.90 in 1.0 mi North - - 0.04 in   Overcast
5:55 PM 33.8 °F 33.8 °F 100% 29.90 in 1.0 mi North - - 0.07 in   Overcast
6:15 PM 33.8 °F 33.8 °F 100% 29.90 in 2.0 mi North - - 0.01 in   Overcast
6:35 PM 33.8 °F 33.8 °F 100% 29.90 in 2.5 mi North - - 0.01 in   Overcast
6:55 PM 33.8 °F 33.8 °F 100% 29.91 in 2.5 mi North - - 0.02 in   Overcast
7:15 PM 33.8 °F 33.8 °F 100% 29.91 in 5.0 mi North - - N/A   Overcast
7:35 PM 33.8 °F 33.8 °F 100% 29.91 in 5.0 mi North - - N/A   Overcast
7:55 PM 33.8 °F 33.8 °F 100% 29.92 in 4.0 mi North - - N/A   Overcast
8:15 PM 33.8 °F 33.8 °F 100% 29.93 in 4.0 mi North - - N/A   Overcast
8:35 PM 33.8 °F 33.8 °F 100% 29.93 in 3.0 mi North - - 0.01 in   Overcast
8:55 PM 33.8 °F 33.8 °F 100% 29.93 in 3.0 mi North - - 0.01 in   Overcast
9:15 PM 33.8 °F 33.8 °F 100% 29.94 in 3.0 mi North - - N/A   Overcast
9:35 PM 33.8 °F 33.8 °F 100% 29.95 in 2.0 mi North - - 0.01 in   Overcast
9:55 PM 33.8 °F 33.8 °F 100% 29.96 in 2.0 mi North - - 0.02 in   Overcast
10:15 PM 33.8 °F 33.8 °F 100% 29.96 in 2.5 mi North - - N/A   Overcast
10:35 PM 33.8 °F 33.8 °F 100% 29.97 in 2.5 mi North - - 0.01 in   Overcast
10:55 PM 33.8 °F 33.8 °F 100% 29.98 in 3.0 mi North - - 0.01 in   Overcast
11:15 PM 33.8 °F 33.8 °F 100% 29.98 in 2.5 mi North - - 0.01 in   Overcast
11:35 PM 33.8 °F 33.8 °F 100% 29.97 in 5.0 mi North - - 0.01 in   Overcast
11:55 PM 33.8 °F 33.8 °F 100% 29.98 in 7.0 mi North - - 0.01 in   Overcast